{"data":{"norad_id":58753,"epoch":"2026-05-25T04:09:50.799168Z","epoch_age_seconds":56712,"freshness":"FRESH","line1":"1 58753U 24007A   26145.17350462  .00002669  00000+0  18863-3 0  9998","line2":"2 58753  29.0001   3.1333 0009572 333.3685  26.6421 15.01756805130103","mean_motion":15.01756805,"eccentricity":0.0009572,"inclination_deg":29.0001,"raan_deg":3.1333,"arg_perigee_deg":333.3685,"mean_anomaly_deg":26.6421,"bstar":0.00018863,"rev_number":13010,"period_min":95.887696010806,"perigee_km":554.83633487435,"apogee_km":568.12153562079,"semimajor_km":6939.6159352476,"source":"CELESTRAK","updated_at":"2026-05-25T13:38:00.962632Z"}}